Change the Weather History Date:

Thursday, March 13, 2014

  Actual Average (KBFD) Record (KBFD)
Temperature  
Mean Temperature 7 °F 30 °F  
Max Temperature 14 °F 40 °F 71 °F (1990)
Min Temperature 0 °F 20 °F -4 °F (1960)
Degree Days  
Heating Degree Days 58 29  
Month to date heating degree days 403  
Since 1 July heating degree days 5973  
Cooling Degree Days 0 0  
Month to date cooling degree days 0  
Year to date cooling degree days 0  
Moisture  
Dew Point -2 °F    
Average Humidity 68    
Maximum Humidity 85    
Minimum Humidity 45    
Precipitation  
Precipitation 0.00 in 0.10 in 1.59 in (1993)
Month to date precipitation 1.29  
Year to date precipitation 6.93  
Sea Level Pressure  
Sea Level Pressure 29.78 in    
Wind  
Wind Speed 0 mph (North)    
Max Wind Speed 0 mph    
Max Gust Speed -    
Visibility 7 miles    
Events Snow    
T = Trace of Precipitation, MM = Missing Value Source: NWS Daily Summary

Daily Weather History Graph

Daily Weather History Graph

Search for Another Location

Airport or City:

Trip Planner

Search our weather history database for the weather conditions in past years. The results will help you decide how hot, cold, wet, or windy it might be!

Date:

Astronomy

Mar. 13, 2014 Rise Set
Actual Time 7:28 AM EDT 7:17 PM EDT
Civil Twilight 7:00 AM EDT 7:45 PM EDT
Nautical Twilight 6:28 AM EDT 8:18 PM EDT
Astronomical Twilight 5:55 AM EDT 8:51 PM EDT
Moon 4:39 PM EDT (3/13) 5:37 AM EDT (3/13)
Length of Visible Light 12h 44m
Length of Day
11h 48m
Waxing Gibbous, 91% of the Moon is Illuminated
Mar 13
Waxing Gibbous
Mar 16
Full
Mar 23
Last Quarter
Mar 30
New
Apr 7
First Quarter

Hourly Weather History & Observations

Time (EDT) Temp. Dew Point Humidity Pressure Visibility Wind Dir Wind Speed Gust Speed Precip Events Conditions
12:15 AM 8.6 °F 3.2 °F 79% 29.58 in 3.0 mi Calm Calm - N/A Snow Light Snow
12:35 AM 8.6 °F 3.2 °F 79% 29.58 in 1.5 mi Calm Calm - N/A Snow Light Snow
12:55 AM 6.8 °F 3.2 °F 85% 29.58 in 2.0 mi Calm Calm - N/A Snow Light Snow
1:15 AM 6.8 °F 3.2 °F 85% 29.58 in 5.0 mi Calm Calm - N/A Snow Light Snow
1:35 AM 6.8 °F 3.2 °F 85% 29.58 in 2.5 mi Calm Calm - N/A Snow Light Snow
1:55 AM 6.8 °F 3.2 °F 85% 29.58 in 4.0 mi Calm Calm - N/A Snow Light Snow
2:15 AM 5.0 °F 1.4 °F 85% 29.58 in 5.0 mi Calm Calm - N/A Snow Light Snow
2:35 AM 5.0 °F 1.4 °F 85% 29.59 in 4.0 mi Calm Calm - N/A Snow Light Snow
2:55 AM 5.0 °F 1.4 °F 85% 29.58 in 1.5 mi Calm Calm - N/A Snow Light Snow
3:15 AM 5.0 °F 1.4 °F 85% 29.58 in 3.0 mi Calm Calm - N/A Snow Light Snow
3:35 AM 5.0 °F -0.4 °F 78% 29.59 in 7.0 mi Calm Calm - N/A   Overcast
3:55 AM 5.0 °F 1.4 °F 85% 29.59 in 3.0 mi Calm Calm - N/A Snow Light Snow
4:15 AM 5.0 °F 1.4 °F 85% 29.59 in 1.5 mi Calm Calm - N/A Snow Light Snow
4:35 AM 3.2 °F -0.4 °F 85% 29.61 in 2.5 mi Calm Calm - N/A Snow Light Snow
4:55 AM 3.2 °F -0.4 °F 85% 29.61 in 2.5 mi Calm Calm - N/A Snow Light Snow
5:15 AM 3.2 °F -0.4 °F 85% 29.61 in 1.2 mi Calm Calm - N/A Snow Light Snow
5:35 AM 3.2 °F -0.4 °F 85% 29.62 in 0.8 mi Calm Calm - N/A Snow Light Snow
5:55 AM 3.2 °F -2.2 °F 78% 29.63 in 3.0 mi Calm Calm - N/A Snow Light Snow
6:15 AM 1.4 °F -4.0 °F 78% 29.64 in 2.5 mi Calm Calm - N/A Snow Light Snow
6:35 AM 1.4 °F -4.0 °F 78% 29.65 in 3.0 mi Calm Calm - N/A   Overcast
6:55 AM 1.4 °F -4.0 °F 78% 29.66 in 2.5 mi Calm Calm - N/A   Haze
7:15 AM -0.4 °F -4.0 °F 85% 29.68 in 2.5 mi Calm Calm - N/A   Overcast
7:35 AM -0.4 °F -4.0 °F 85% 29.69 in 2.0 mi Calm Calm - N/A Snow Light Snow
7:55 AM -0.4 °F -4.0 °F 85% 29.70 in 2.5 mi Calm Calm - N/A   Overcast
8:15 AM -0.4 °F -5.8 °F 78% 29.71 in 4.0 mi Calm Calm - N/A   Haze
8:35 AM -0.4 °F -5.8 °F 78% 29.73 in 5.0 mi Calm Calm - N/A   Haze
8:55 AM -0.4 °F -5.8 °F 78% 29.73 in 7.0 mi Calm Calm - N/A   Overcast
9:15 AM 1.4 °F -5.8 °F 72% 29.75 in 5.0 mi Calm Calm - N/A   Haze
9:35 AM 1.4 °F -5.8 °F 72% 29.76 in 4.0 mi Calm Calm - N/A   Haze
9:55 AM 1.4 °F -5.8 °F 72% 29.76 in 4.0 mi Calm Calm - N/A   Haze
10:15 AM 1.4 °F -5.8 °F 72% 29.78 in 3.0 mi Calm Calm - N/A   Haze
10:35 AM 3.2 °F -5.8 °F 66% 29.79 in 4.0 mi Calm Calm - N/A   Haze
10:55 AM 3.2 °F -4.0 °F 72% 29.79 in 4.0 mi Calm Calm - N/A   Haze
11:15 AM 5.0 °F -4.0 °F 66% 29.80 in 7.0 mi Calm Calm - N/A   Scattered Clouds
11:35 AM 5.0 °F -4.0 °F 66% 29.81 in 7.0 mi Calm Calm - N/A   Clear
11:55 AM 5.0 °F -4.0 °F 66% 29.81 in 7.0 mi Calm Calm - N/A   Clear
12:15 PM 6.8 °F -4.0 °F 61% 29.82 in 5.0 mi Calm Calm - N/A   Haze
12:35 PM 8.6 °F -4.0 °F 57% 29.83 in 7.0 mi Calm Calm - N/A   Clear
12:55 PM 8.6 °F -4.0 °F 57% 29.84 in 10.0 mi Calm Calm - N/A   Clear
1:15 PM 10.4 °F -5.8 °F 48% 29.84 in 7.0 mi Calm Calm - N/A   Clear
1:35 PM 10.4 °F -4.0 °F 52% 29.85 in 10.0 mi Calm Calm - N/A   Clear
1:55 PM 10.4 °F -4.0 °F 52% 29.85 in 10.0 mi Calm Calm - N/A   Clear
2:15 PM 12.2 °F -4.0 °F 48% 29.85 in 10.0 mi Calm Calm - N/A   Clear
2:35 PM 12.2 °F -2.2 °F 53% 29.85 in 10.0 mi Calm Calm - N/A   Clear
2:55 PM 12.2 °F -2.2 °F 53% 29.85 in 10.0 mi Calm Calm - N/A   Clear
3:15 PM 12.2 °F -4.0 °F 48% 29.86 in 10.0 mi Calm Calm - N/A   Clear
3:35 PM 12.2 °F -4.0 °F 48% 29.86 in 10.0 mi Calm Calm - N/A   Clear
3:55 PM 12.2 °F -4.0 °F 48% 29.87 in 10.0 mi Calm Calm - N/A   Clear
4:15 PM 14.0 °F -4.0 °F 45% 29.87 in 10.0 mi Calm Calm - N/A   Clear
4:35 PM 12.2 °F -4.0 °F 48% 29.88 in 10.0 mi Calm Calm - N/A   Clear
4:55 PM 12.2 °F -4.0 °F 48% 29.88 in 10.0 mi Calm Calm - N/A   Clear
5:15 PM 12.2 °F -4.0 °F 48% 29.89 in 10.0 mi Calm Calm - N/A   Clear
5:35 PM 12.2 °F -2.2 °F 53% 29.90 in 10.0 mi Calm Calm - N/A   Clear
5:55 PM 12.2 °F -0.4 °F 57% 29.90 in 10.0 mi Calm Calm - N/A   Scattered Clouds
6:15 PM 12.2 °F -0.4 °F 57% 29.91 in 10.0 mi Calm Calm - N/A   Scattered Clouds
6:35 PM 12.2 °F -2.2 °F 53% 29.91 in 10.0 mi Calm Calm - N/A   Scattered Clouds
6:55 PM 12.2 °F -0.4 °F 57% 29.92 in 10.0 mi Calm Calm - N/A   Scattered Clouds
7:15 PM 10.4 °F -2.2 °F 57% 29.94 in 10.0 mi Calm Calm - N/A   Mostly Cloudy
7:35 PM 10.4 °F -2.2 °F 57% 29.93 in 10.0 mi Calm Calm - N/A   Overcast
7:55 PM 10.4 °F -0.4 °F 62% 29.94 in 10.0 mi Calm Calm - N/A   Overcast
8:15 PM 10.4 °F -0.4 °F 62% 29.94 in 10.0 mi Calm Calm - N/A   Overcast
8:35 PM 10.4 °F -0.4 °F 62% 29.95 in 10.0 mi Calm Calm - N/A   Overcast
8:55 PM 10.4 °F -0.4 °F 62% 29.95 in 10.0 mi Calm Calm - N/A   Overcast
9:15 PM 10.4 °F -0.4 °F 62% 29.95 in 10.0 mi Calm Calm - N/A   Overcast
9:35 PM 10.4 °F 1.4 °F 67% 29.95 in 10.0 mi Calm Calm - N/A   Overcast
9:55 PM 10.4 °F 1.4 °F 67% 29.96 in 10.0 mi Calm Calm - N/A   Overcast
10:15 PM 10.4 °F 1.4 °F 67% 29.95 in 10.0 mi Calm Calm - N/A   Overcast
10:35 PM 10.4 °F -0.4 °F 62% 29.96 in 10.0 mi Calm Calm - N/A   Overcast
10:55 PM 10.4 °F -0.4 °F 62% 29.95 in 10.0 mi Calm Calm - N/A   Overcast
11:15 PM 12.2 °F 1.4 °F 62% 29.96 in 10.0 mi Calm Calm - N/A   Overcast
11:35 PM 12.2 °F 1.4 °F 62% 29.95 in 10.0 mi Calm Calm - N/A   Overcast
11:55 PM 12.2 °F 1.4 °F 62% 29.94 in 10.0 mi Calm Calm - N/A   Overcast